Regional Weather Roundup
Issued by NWS

Home | Current Version | Previous Version | Text Only | Print | Product List | Glossary Off
Versions: 1 2 3 4 5 6 7 8 9 10 11 12 13 14 15 16 17 18 19 20 21 22 23 24 25 26 27 28 29 30 31 32 33 34 35 36 37 38 39 40 41 42 43 44 45 46 47 48 49 50

000
ASUS43 KLOT 241204
RWRIL

ILLINOIS REGIONAL WEATHER ROUNDUP
NATIONAL WEATHER SERVICE CHICAGO/ROMEOVILLE IL
700 AM CDT WED MAY 24 2017

NOTE: "FAIR" INDICATES FEW OR NO CLOUDS BELOW 12,000 FEET WITH NO
SIGNIFICANT WEATHER AND/OR OBSTRUCTIONS TO VISIBILITY.

* THESE STATIONS ARE NOT UNDER NWS QUALITY CONTROL. THEY ALSO MAY NOT
  REPORT WEATHER SUCH AS PRECIPITATION OR FOG.

ILZ001-002-007-009-015-016-024-241300-
NORTHWEST ILLINOIS

CITY           SKY/WX    TMP DP  RH WIND       PRES   REMARKS
MOLINE         CLOUDY    52  48  86 N3        29.62S
6HR MIN TEMP:  46; 6HR MAX TEMP:  52;

STERLING*      CLOUDY    52  52 100 N3        29.63S FOG
SAVANNA*       CLOUDY    52  52  99 N3        29.63S FOG
$$

ILZ003-004-008-010-011-017-018-241300-
NORTH CENTRAL ILLINOIS

CITY           SKY/WX    TMP DP  RH WIND       PRES   REMARKS
ROCKFORD       LGT RAIN  53  52  96 N10       29.64S FOG
6HR MIN TEMP:  48; 6HR MAX TEMP:  55; 6HR PCP:  0.03;

FREEPORT*      CLOUDY    50  50 100 N8        29.65R FOG
ROCHELLE*      RAIN      53  53  99 N6        29.62R
DE KALB*       CLOUDY    54  53  96 NE9       29.61F FOG
PERU*          PTSUNNY   52  50  94 N7        29.60F FOG
$$

ILZ005-006-012>014-019>023-241300-
NORTHEAST ILLINOIS

CITY           SKY/WX    TMP DP  RH WIND       PRES   REMARKS
CHICAGO-OHARE  CLOUDY    54  51  90 N13       29.58F
6HR MIN TEMP:  53; 6HR MAX TEMP:  55; 6HR PCP:  0.18;

CHICAGO-MIDWAY CLOUDY    55  53  93 N10       29.58S
6HR MIN TEMP:  55; 6HR MAX TEMP:  57; 6HR PCP:  0.34;

AURORA         CLOUDY    55  53  93 N5        29.60S
6HR MIN TEMP:  55; 6HR MAX TEMP:  56; 6HR PCP: TRACE;

LANSING*       CLOUDY    54  54 100 N7        29.58S FOG
JOLIET*        CLOUDY    56  55  94 NE7       29.58R
WAUKEGAN       LGT RAIN  51  51 100 N9        29.61S FOG
6HR MIN TEMP:  49; 6HR MAX TEMP:  51; 6HR PCP:  0.28;

DUPAGE AIRPORT CLOUDY    53  53 100 NE10      29.58S FOG
6HR MIN TEMP:  53; 6HR MAX TEMP:  55; 6HR PCP:  0.09;

KANKAKEE*      CLOUDY    56  55  98 CALM      29.57S FOG
WHEELING       LGT RAIN  53  53 100 NE7       29.61F
6HR MIN TEMP:  51; 6HR MAX TEMP:  53; 6HR PCP:  0.21;

MORRIS*        CLOUDY    55  54  95 CALM      29.58S FOG
ROMEOVILLE*    CLOUDY    55  55 100 NE12      29.57S
NORTHERLY ISL    N/A     52  50  93 MISG        N/A
$$

LMZ740>746-241300-
SOUTHERN LAKE MICHIGAN

STATION/POSITION SKY/WX   TEMP    WIND        PRES    VSBY  WAVE
                          AIR SEA DIR/SP/G                  HT/PER
                          (F)     (DEG/KT/KT) (MB)    (MI)  (FT/S)
SOUTHERN BUOY              47 45  360/ 12/ 14 1002.9          1/ 3
WILMETTE HARBOR            50 53                N/A           2/ 3
HARRISON CRIB              53     360/ 16/ 18   N/A
BURNHAM HARBOR             53     360/ 11/ 15   N/A
CALUMET HARBOR             53     340/  9/ 14 1001.4F
BURNS HARBOR               53      30/ 16/ 18 1001.7F
MICHIGAN CITY              52     360/ 19/ 20   N/A
MICHIGAN CITY 6N           52 53   20/ 14/ 17   N/A           2/ 3
ST. JOSEPH                 54 57   20/ 12/ 14 1001.8S         1/ 2
$$

ILZ025>027-034>036-040-047-049-050-058-095>099-241300-
WEST-CENTRAL ILLINOIS

CITY           SKY/WX    TMP DP  RH WIND       PRES   REMARKS
QUINCY         SUNNY     49  47  93 NW9       29.62S
GALESBURG*     CLOUDY    50  48  95 N6        29.61R
MACOMB*        CLOUDY    49  49  97 NW3       29.64R
JACKSONVILLE*  SUNNY     50  49  95 NW6       29.60F
PITTSFIELD*    SUNNY     50  48  94 W5        29.62F
$$

ILZ028>032-037-038-041>044-048-051>054-059>061-241300-
CENTRAL ILLINOIS

CITY           SKY/WX    TMP DP  RH WIND       PRES   REMARKS
PONTIAC        FOG       54  53  98 NW8       29.59S VSB<1/4
BLOOMINGTON    FOG       51  51 100 NW7       29.60S VSB 1/4
DECATUR        CLOUDY    54  53  97 NW7       29.58S FOG
PEORIA         FOG       51  51 100 N7        29.60S VSB 1
6HR MIN TEMP:  51; 6HR MAX TEMP:  55;

LACON*         CLOUDY    53  53 100 N8        29.60S FOG
LINCOLN*       CLOUDY    55  55 100 CALM      29.59S FOG
SPRINGFIELD    SUNNY     53  52  96 N5        29.60S
6HR MIN TEMP:  52; 6HR MAX TEMP:  56;

TAYLORVILLE    MOSUNNY   53  52  97 NW7       29.59S
6HR MIN TEMP:  52; 6HR MAX TEMP:  56;

$$

ILZ033-039-045-046-055>057-062-063-241300-
EAST-CENTRAL ILLINOIS

CITY           SKY/WX    TMP DP  RH WIND       PRES   REMARKS
CHAMPAIGN      CLOUDY    57  54  89 NW8       29.57R FOG
RANTOUL*       CLOUDY    58  57  97 N5        29.57R FOG
MATTOON        LGT RAIN  56  56 100 NW10      29.56S
PARIS*         CLOUDY    57  56  95 N5        29.57R
$$

ILZ079-100>102-241300-
SOUTHWEST ILLINOIS

CITY           SKY/WX    TMP DP  RH WIND       PRES   REMARKS
ALTON          PTSUNNY   50  48  93 NW6       29.60F
BELLEVILLE     MOSUNNY   53  50  88 NW8       29.60F
CAHOKIA*       MOSUNNY   54  51  90 NW6       29.60F
SPARTA*        CLOUDY    54  52  94 NW5       29.60S
$$

ILZ064>066-069>071-074>076-080>082-084>086-088>090-092>094-241300-
SOUTH-CENTRAL ILLINOIS

CITY           SKY/WX    TMP DP  RH WIND       PRES   REMARKS
CARBONDALE     NOT AVBL
CAIRO*         DRIZZLE   58  56  94 NW5       29.56S
EFFINGHAM*     CLOUDY    57  57 100 NW7       29.58F FOG
MARION         CLOUDY    57  57 100 NW5       29.57F
MT. VERNON       N/A     57  55  93 CALM      29.56
CENTRALIA*     CLOUDY    56  55  96 NW7       29.57S
SALEM*         CLOUDY    56  53  89 NW9       29.57F
$$

ILZ067-068-072-073-078-083-087-091-241300-
SOUTHEAST ILLINOIS

CITY           SKY/WX    TMP DP  RH WIND       PRES   REMARKS
LAWRENCEVILLE  LGT RAIN  58  56  93 NW8       29.55F FOG
FLORA*         DRIZZLE   58  56  93 N5        29.56F
FAIRFIELD*     LGT RAIN  57  56  98 CALM      29.55F
HARRISBURG*    DRIZZLE   57  55  95 N3        29.56F
ROBINSON*      LGT RAIN  57  56  96 NW3       29.56S
CARMI*         LGT RAIN  57  57  98 NW8       29.55F
$$

ABBREVIATIONS USED IN REMARKS
   TC - TEMPERATURE IN CELSIUS
  WCI - WIND CHILL INDEX
   HX - HEAT INDEX
  VSB - VISIBILITY
$$





USA.gov is the U.S. government's official web portal to all federal, state and local government web resources and services.